Volver al catálogo

STARLINK-32354

ActivoComunicacionesVLEO
NORAD 61932·PAYLOAD·🇺🇸 United States

Lanzado Nov 11, 2024 desde Cape Canaveral Space Force Station

Loading…

Próximos Pases (próximas 24 horas)

TLE

ActualizadoSource: CelesTrak SupGP

Época: Sep 15, 2026, 02:12 UTC

1 61932C 24207W   26258.09215278  .00029540  00000+0  10698-2 0  2586
2 61932  43.0011 295.8737 0001263 265.6164 143.6702 15.27568005    18

Sigue STARLINK-32354 en tiempo real con AllMySat

Download on the App Store